Location: Sevilla
(37.3933°N, 5.9839°W)
Time: 17:11:29
(UTC+02:00)

A-11 Canister half - Visible Passes

Search period start: 13 July 2025 00:00
Search period end: 23 July 2025 00:00
Orbit: 1523 x 1684 km, 47.3° (Epoch: 13 July)

Date Brightness Start Highest point End Pass type
(mag) Time Alt. Az. Time Alt. Az. Time Alt. Az.
13 Jul 10.7 03:22:22 13° SE 03:23:27 14° ESE 03:27:46 10° E visible
13 Jul 9.4 05:20:39 23° SSW 05:27:04 57° SE 05:36:26 10° ENE visible
14 Jul 10.8 03:01:41 12° ESE 03:01:42 12° ESE 03:05:16 10° E visible
14 Jul 9.4 04:59:58 29° SSW 05:05:15 54° SE 05:14:36 10° ENE visible
15 Jul 10.8 02:40:57 11° ESE 02:40:57 11° ESE 02:42:31 10° ESE visible
15 Jul 9.4 04:39:13 33° S 04:43:27 51° SE 04:52:45 10° ENE visible
15 Jul 9.4 06:38:32 10° WSW 06:48:26 67° NNW 06:58:01 10° ENE visible
16 Jul 9.4 04:18:27 38° S 04:21:39 49° SE 04:30:53 10° ENE visible
16 Jul 9.3 06:16:43 10° WSW 06:26:33 69° NNW 06:36:12 10° ENE visible
17 Jul 9.4 03:57:37 41° SSE 03:59:51 46° SE 04:09:00 10° ENE visible
17 Jul 9.2 05:55:53 14° WSW 06:04:41 72° NNW 06:14:22 10° ENE visible
18 Jul 9.4 03:36:45 42° SSE 03:38:03 44° SE 03:47:08 10° ENE visible
18 Jul 9.2 05:35:01 19° WSW 05:42:49 74° NNW 05:52:32 10° ENE visible
19 Jul 9.5 03:15:50 41° SE 03:16:15 41° SE 03:25:14 10° ENE visible
19 Jul 9.2 05:14:06 24° WSW 05:20:57 77° NNW 05:30:43 10° ENE visible
20 Jul 9.6 02:54:53 39° SE 02:54:53 39° SE 03:03:20 10° ENE visible
20 Jul 9.1 04:53:08 29° WSW 04:59:05 79° NNW 05:08:53 10° ENE visible
21 Jul 9.7 02:33:53 36° ESE 02:33:53 36° ESE 02:41:26 10° ENE visible
21 Jul 9.1 04:32:07 35° WSW 04:37:13 82° NNW 04:47:04 10° ENE visible
21 Jul 9.8 06:33:49 10° W 06:43:22 49° N 06:52:37 10° ENE visible
22 Jul 9.9 02:12:49 33° ESE 02:12:49 33° ESE 02:19:30 10° ENE visible
22 Jul 9.0 04:11:03 41° WSW 04:15:21 85° NNW 04:25:14 10° ENE visible
22 Jul 9.8 06:11:52 10° W 06:21:27 49° N 06:30:45 10° ENE visible
